Torna al catalogo

SL-8 DEB

AttivoLEO
NORAD 21161·DEBRIS·🇷🇺 Russia

Lanciato Feb 12, 1991 da Plesetsk Cosmodrome

Loading…

Prossimi Passaggi (prossime 24 ore)

TLE

AggiornatoSource: Space-Track

Epoca: Sep 14, 2026, 14:04 UTC

1 21161U 91009Y   26257.58631359  .00000023  00000-0  34425-3 0  9998
2 21161  74.0715 125.8968 0131682 136.0310 237.7028 12.19453622581582

Traccia SL-8 DEB in tempo reale con AllMySat

Download on the App Store